Terug naar catalogus

SL-19 DEB

ActiefUNKNOWN
NORAD 23496·DEBRIS·🇷🇺 Russia

Gelanceerd Dec 26, 1994 vanaf Baikonur Cosmodrome

Loading…

Volgende Passages (komende 24 uur)

TLE

VersSource: Space-Track

Epoch: Sep 11, 2026, 17:58 UTC

1 23496U 94085U   26254.74908516  .00002654  00000-0  67973-1 0  9999
2 23496  64.8309  62.8140 0247449 287.9577  83.3576 11.34270281309094

Volg SL-19 DEB in realtime met AllMySat

Download on the App Store